[[{"header":{"parameterUnit":"m.s-1","parameterCategory":1,"la1":30.2991,"la2":30.254,"lo1":-89.0895,"lo2":-89.0444,"dy":0.0017,"dx":0.0017,"nx":28,"ny":28,"refTime":"2023-05-26T21:00:00:Z","depth":0,"parameterNumber":2,"parameterNumberName":"U-component_of_WINDS"},"data":[0,0,0,0,0,0,0,0,0,0,0,0,0,0,0,0,0,0,0,0,0,0,0,0,0,0,0,0,0,0,0,0,0,0,0,0,0,0,0,0,0,0,0,0,0,0,0,0,0,0,0,0,0,0,0,0,0,0,-0.3497,-0.3498,0,-0.3583,-0.3584,-0.3585,-0.3619,-0.3619,-0.3619,-0.3619,-0.3705,-0.3708,-0.371,0,0,0,0,0,0,0,0,0,0,0,0,0,-0.3362,-0.3365,-0.3497,-0.3498,-0.3499,-0.3583,-0.3584,-0.3585,-0.3619,-0.3619,-0.3619,-0.3619,-0.3705,-0.3708,-0.3711,0,0,0,0,0,0,0,0,0,0,0,0,0,-0.3432,-0.3365,-0.3497,-0.3527,-0.353,-0.3582,-0.3584,-0.3585,-0.3619,-0.3619,-0.3619,-0.3619,-0.3704,-0.3707,-0.3711,-0.374,0,0,-0.3722,-0.3724,0,0,0,0,0,0,0,0,-0.3428,-0.3436,-0.3521,-0.3525,-0.3529,-0.359,-0.3568,-0.3637,-0.3619,-0.3585,-0.3619,-0.3618,-0.3667,-0.3674,-0.3691,-0.3744,-0.3748,-0.3723,-0.3725,-0.3727,-0.3728,0,0,0,0,0,0,0,-0.3423,-0.3433,-0.3531,-0.3522,-0.3527,-0.3535,-0.3545,-0.3581,-0.3627,-0.3588,-0.3591,-0.3601,-0.3669,-0.3687,-0.3693,-0.3749,-0.3723,-0.3726,-0.3728,-0.373,-0.383,-0.383,0,0,0,0,0,0,-0.3413,-0.3429,-0.3528,-0.3534,-0.3476,-0.3538,-0.3548,-0.3571,-0.3627,-0.3635,-0.3601,-0.3602,-0.3681,-0.3689,-0.3696,-0.3733,-0.3727,-0.373,-0.3732,-0.3829,-0.383,-0.383,0,0,0,0,0,0,-0.341,-0.3422,-0.3525,-0.3482,-0.3496,-0.354,-0.3565,-0.3573,-0.359,-0.3636,-0.3644,-0.3611,-0.3681,-0.3691,-0.3729,-0.3737,-0.3732,-0.3735,-0.3829,-0.3829,-0.383,-0.3808,0,0,0,0,0,0,-0.3406,-0.342,-0.3432,-0.3482,-0.3498,-0.3557,-0.3566,-0.3574,-0.3597,-0.3599,-0.3648,-0.3655,-0.3681,-0.3723,-0.3732,-0.3742,-0.3738,-0.3828,-0.3829,-0.383,-0.3809,-0.3808,-0.3808,0,0,0,0,0,-0.3401,-0.3423,-0.3433,-0.3445,-0.3514,-0.3557,-0.3566,-0.3596,-0.3597,-0.3609,-0.3639,-0.3654,-0.3734,-0.3727,-0.3737,-0.3748,-0.3828,-0.3829,-0.383,-0.3809,-0.3808,-0.3808,0,0,0,0,0,0,-0.3373,-0.343,-0.3442,-0.348,-0.3513,-0.3563,-0.3579,-0.3594,-0.3628,-0.3629,-0.3664,-0.3674,-0.3709,-0.3733,-0.3723,-0.3779,-0.3782,-0.3785,-0.3762,-0.3762,-0.3762,-0.3756,-0.3741,0,0,0,0,0,-0.3371,-0.3402,-0.345,-0.3479,-0.3495,-0.3534,-0.3554,-0.3574,-0.361,-0.3624,-0.3656,-0.369,-0.3723,-0.3744,-0.3777,-0.3812,-0.3823,-0.3825,-0.3824,-0.3824,-0.3826,-0.3846,-0.3847,-0.3833,-0.3833,-0.3833,0,0,-0.3368,-0.3403,-0.342,-0.3474,-0.3503,-0.3533,-0.3546,-0.3578,-0.36,-0.3629,-0.3667,-0.3691,-0.3731,-0.3767,-0.3785,-0.3788,-0.3832,-0.3825,-0.3824,-0.3827,-0.3847,-0.3848,-0.3849,-0.3834,-0.3834,-0.3834,0,0,-0.3378,-0.3408,-0.3435,-0.3463,-0.3505,-0.3531,-0.3537,-0.3584,-0.3601,-0.364,-0.3661,-0.3689,-0.3745,-0.3772,-0.3794,-0.3812,-0.3827,-0.3822,-0.382,-0.3839,-0.384,-0.3841,-0.3848,-0.3849,-0.3824,-0.3824,-0.3824,0,-0.3369,-0.3416,-0.3447,-0.3478,-0.3501,-0.3527,-0.3555,-0.358,-0.3631,-0.3646,-0.3648,-0.3719,-0.3748,-0.3791,-0.3795,-0.3812,-0.382,-0.3817,-0.3837,-0.3839,-0.384,-0.3847,-0.3849,-0.3823,-0.3823,-0.3823,-0.3823,0,-0.3402,-0.3434,-0.3451,-0.35,-0.3524,-0.3553,-0.3588,-0.3609,-0.3627,-0.3651,-0.369,-0.3725,-0.3765,-0.3777,-0.3794,-0.3822,-0.3822,-0.3831,-0.3835,-0.384,-0.3847,-0.385,-0.3822,-0.3822,-0.3822,-0.3823,0,0,-0.3398,-0.3462,-0.3468,-0.349,-0.3538,-0.3563,-0.3593,-0.3632,-0.3649,-0.3683,-0.3708,-0.3755,-0.3762,-0.3786,-0.3807,-0.3823,-0.3835,-0.383,-0.3831,-0.3829,-0.3868,-0.3861,-0.3864,-0.3845,-0.3846,-0.3846,-0.3864,0,-0.3414,-0.3468,-0.3497,-0.3539,-0.3569,-0.3594,-0.362,-0.3652,-0.3675,-0.3704,-0.373,-0.3762,-0.377,-0.3785,-0.3802,-0.383,-0.3844,-0.3829,-0.3869,-0.387,-0.3858,-0.3867,-0.3861,-0.3876,-0.3867,-0.3867,-0.3868,0,-0.344,-0.3474,-0.3519,-0.3563,-0.3576,-0.3599,-0.3637,-0.3664,-0.37,-0.3716,-0.3742,-0.3762,-0.3794,-0.3795,-0.3839,-0.3828,-0.3846,-0.3862,-0.3864,-0.3869,-0.3869,-0.3872,-0.3881,-0.3883,-0.3872,-0.3872,-0.3872,0,-0.3432,-0.3488,-0.3522,-0.354,-0.3593,-0.3608,-0.363,-0.3666,-0.3688,-0.3721,-0.3735,-0.3771,-0.379,-0.3818,-0.3846,-0.3845,-0.3887,-0.3891,-0.3901,-0.39,-0.3909,-0.3908,-0.3921,-0.392,-0.392,-0.392,-0.392,0,-0.3447,-0.3474,-0.3519,-0.354,-0.3571,-0.3602,-0.3631,-0.3656,-0.3687,-0.3713,-0.3737,-0.376,-0.3797,-0.3825,-0.3848,-0.388,-0.3889,-0.3902,-0.3908,-0.39,-0.3899,-0.3913,-0.3912,-0.3921,-0.392,-0.392,-0.392,0,-0.3444,-0.3475,-0.3514,-0.356,-0.3572,-0.3592,-0.3631,-0.3652,-0.3677,-0.3709,-0.3718,-0.3757,-0.3791,-0.3822,-0.3868,-0.3883,-0.3915,-0.3923,-0.3903,-0.3906,-0.3915,-0.3913,-0.3937,-0.3942,-0.3937,-0.3937,-0.3937,0,-0.3451,-0.3472,-0.352,-0.3539,-0.3561,-0.3591,-0.3613,-0.3645,-0.3667,-0.3709,-0.3725,-0.3761,-0.3791,-0.3844,-0.3876,-0.391,-0.3919,-0.3925,-0.3924,-0.3915,-0.3919,-0.3917,-0.3919,-0.3924,-0.3924,-0.3924,-0.3924,0,-0.3462,-0.3476,-0.3507,-0.3543,-0.3568,-0.3598,-0.3629,-0.3643,-0.368,-0.3704,-0.3739,-0.3762,-0.3808,-0.3843,-0.3881,-0.3904,-0.392,-0.3924,-0.3928,-0.392,-0.3908,-0.3915,-0.3902,-0.3923,-0.3923,-0.3923,-0.3923,-0.3923,-0.3464,-0.3484,-0.352,-0.3553,-0.358,-0.3608,-0.3629,-0.3656,-0.3686,-0.3726,-0.3743,-0.3778,-0.3813,-0.3866,-0.3888,-0.3916,-0.392,-0.3926,-0.3927,-0.3928,-0.3926,-0.3903,-0.3923,-0.3923,-0.3923,-0.3923,-0.3923,0,-0.3475,-0.35,-0.353,-0.3572,-0.3598,-0.3611,-0.3645,-0.3666,-0.3697,-0.3728,-0.3757,-0.3797,-0.3831,-0.3865,-0.3901,-0.3916,-0.3925,-0.3924,-0.3924,-0.3929,-0.3921,-0.3914,-0.3917,-0.3917,-0.3917,-0.3917,-0.3917,-0.3917,-0.3484,-0.3518,-0.3536,-0.3583,-0.3607,-0.3642,-0.3661,-0.3686,-0.3711,-0.3755,-0.3783,-0.3805,-0.3837,-0.3875,-0.3906,-0.3915,-0.3927,-0.3925,-0.3936,-0.3929,-0.3929,-0.3929,-0.3923,-0.3927,-0.3927,-0.3941,-0.3941,-0.3941]},{"header":{"parameterUnit":"m.s-1","parameterCategory":1,"la1":30.2991,"la2":30.254,"lo1":-89.0895,"lo2":-89.0444,"dy":0.0017,"dx":0.0017,"nx":28,"ny":28,"refTime":"2023-05-26T21:00:00:Z","depth":0,"parameterNumber":3,"parameterNumberName":"V-component_of_WINDS"},"data":[0,0,0,0,0,0,0,0,0,0,0,0,0,0,0,0,0,0,0,0,0,0,0,0,0,0,0,0,0,0,0,0,0,0,0,0,0,0,0,0,0,0,0,0,0,0,0,0,0,0,0,0,0,0,0,0,0,0,0.0256,0.0258,0,0.0403,0.0404,0.0406,0.0512,0.0513,0.0513,0.0514,0.0662,0.0665,0.0668,0,0,0,0,0,0,0,0,0,0,0,0,0,0.0065,0.0068,0.0256,0.0258,0.026,0.0402,0.0404,0.0406,0.0512,0.0513,0.0514,0.0515,0.0661,0.0665,0.0669,0,0,0,0,0,0,0,0,0,0,0,0,0,0.0173,0.0069,0.0256,0.033,0.0338,0.0402,0.0404,0.0407,0.0511,0.0513,0.0514,0.0515,0.066,0.0665,0.0669,0.0671,0,0,0.0684,0.0686,0,0,0,0,0,0,0,0,0.0167,0.018,0.0317,0.0325,0.0334,0.044,0.0391,0.0495,0.0511,0.0445,0.0514,0.0516,0.0587,0.0598,0.0623,0.0678,0.0685,0.0684,0.0687,0.0689,0.069,0,0,0,0,0,0,0,0.0159,0.0174,0.0314,0.0319,0.0329,0.0354,0.0371,0.0412,0.0507,0.0451,0.0459,0.0475,0.0592,0.0618,0.0627,0.0687,0.0684,0.0688,0.0691,0.0693,0.075,0.0749,0,0,0,0,0,0,0.0141,0.0167,0.0309,0.0318,0.0252,0.0357,0.0376,0.0405,0.0507,0.0524,0.0474,0.0479,0.0609,0.0621,0.0632,0.0641,0.0689,0.0693,0.0696,0.0751,0.075,0.0748,0,0,0,0,0,0,0.0136,0.0152,0.0304,0.0245,0.0266,0.0359,0.039,0.0407,0.0433,0.0524,0.0541,0.0483,0.0611,0.0626,0.0661,0.0647,0.0695,0.07,0.0753,0.0751,0.0749,0.0657,0,0,0,0,0,0,0.013,0.015,0.0153,0.0245,0.0269,0.033,0.039,0.0409,0.0441,0.0449,0.0537,0.0553,0.0613,0.0653,0.0665,0.0654,0.0703,0.0754,0.0752,0.075,0.0662,0.0652,0.0644,0,0,0,0,0,0.0123,0.0121,0.0152,0.0169,0.0274,0.0329,0.0343,0.0413,0.0439,0.0442,0.05,0.055,0.0647,0.0656,0.067,0.0661,0.0756,0.0753,0.075,0.0666,0.0654,0.0644,0,0,0,0,0,0,0.0025,0.0134,0.017,0.0198,0.0253,0.0347,0.0353,0.0399,0.0447,0.0453,0.0537,0.0556,0.0582,0.0625,0.0633,0.0667,0.0707,0.0707,0.0638,0.0628,0.0619,0.0608,0.0707,0,0,0,0,0,0.0007,0.0043,0.0136,0.0151,0.0177,0.026,0.0286,0.0335,0.0396,0.0419,0.0481,0.0537,0.058,0.0606,0.0651,0.0668,0.0688,0.0669,0.066,0.0652,0.0651,0.0662,0.0654,0.0739,0.0739,0.0739,0,0,-0.0031,0.0033,0.0051,0.0133,0.0182,0.0216,0.0279,0.0313,0.0339,0.0425,0.0461,0.0507,0.0576,0.0601,0.0615,0.0638,0.0632,0.0649,0.0642,0.0645,0.0658,0.065,0.0643,0.0737,0.0737,0.0738,0,0,-0.0082,-0.0029,-0.0011,0.0036,0.0109,0.0163,0.0167,0.0253,0.0287,0.0325,0.039,0.0421,0.0494,0.054,0.0572,0.0536,0.0583,0.0548,0.0502,0.0511,0.0505,0.0499,0.0485,0.0479,0.0547,0.0546,0.0546,0,-0.0138,-0.0083,-0.0008,0.0022,0.0055,0.0134,0.0152,0.0194,0.0277,0.0298,0.0322,0.0414,0.0466,0.0502,0.0493,0.0517,0.0523,0.0539,0.05,0.0495,0.0491,0.0478,0.0473,0.0542,0.0542,0.0543,0.0543,0,-0.0156,-0.0119,-0.0114,-0.0036,-0.0001,0.0022,0.0099,0.0125,0.017,0.0222,0.0258,0.0323,0.0381,0.0393,0.0438,0.0436,0.0447,0.0484,0.0526,0.0477,0.0466,0.0462,0.0535,0.0536,0.0538,0.0539,0,0,-0.0264,-0.0146,-0.0145,-0.011,-0.0024,0.0005,0.0031,0.0089,0.0108,0.0163,0.0186,0.0245,0.0279,0.0316,0.0366,0.0375,0.034,0.0411,0.0414,0.0394,0.0339,0.031,0.0304,0.0371,0.0371,0.037,0.0333,0,-0.0303,-0.025,-0.0183,-0.0154,-0.012,-0.0046,-0.0023,0.0031,0.0079,0.0115,0.0168,0.0208,0.0251,0.0273,0.0285,0.0341,0.033,0.0345,0.0393,0.0394,0.0373,0.0299,0.0268,0.023,0.033,0.0329,0.0329,0,-0.034,-0.0291,-0.0259,-0.0178,-0.0161,-0.0142,-0.0085,-0.0052,0.001,0.0045,0.0085,0.0139,0.0169,0.0206,0.0248,0.0257,0.0281,0.0311,0.0311,0.0318,0.0358,0.0302,0.022,0.0214,0.0323,0.0324,0.0324,0,-0.0424,-0.0349,-0.032,-0.0292,-0.0196,-0.0185,-0.0145,-0.0081,-0.0052,-0.0003,0.0017,0.0069,0.0098,0.0136,0.0202,0.0223,0.0236,0.028,0.0265,0.0263,0.0264,0.0263,0.0183,0.028,0.028,0.028,0.028,0,-0.0475,-0.0458,-0.0357,-0.0339,-0.0319,-0.0243,-0.0225,-0.0178,-0.0123,-0.0096,-0.0028,-0.0005,0.0082,0.0115,0.0167,0.0193,0.0206,0.0233,0.0247,0.0227,0.0223,0.0243,0.0247,0.0279,0.0279,0.0279,0.0279,0,-0.0565,-0.0496,-0.046,-0.0373,-0.0351,-0.034,-0.0266,-0.0247,-0.0195,-0.0162,-0.015,-0.0069,-0.0026,0.0043,0.0107,0.0142,0.0158,0.0181,0.0136,0.0145,0.0125,0.0126,0.0055,0.005,0.015,0.0149,0.0148,0,-0.0602,-0.0588,-0.05,-0.0477,-0.0439,-0.0403,-0.0372,-0.0297,-0.0269,-0.0198,-0.0188,-0.014,-0.0097,-0.0033,0.0031,0.0079,0.0104,0.0075,0.0111,0.009,0.0102,0.01,0.0101,0.0067,0.0065,0.0064,0.0063,0,-0.0676,-0.0643,-0.0601,-0.0549,-0.0515,-0.047,-0.0421,-0.0407,-0.0321,-0.0293,-0.0248,-0.0216,-0.0151,-0.0105,-0.0048,-0.0008,0.0041,0.0051,0.005,0.003,0.0003,0.0016,0.0113,0.0053,0.0054,0.0055,0.0055,0.0056,-0.0741,-0.0725,-0.0661,-0.0618,-0.0574,-0.0531,-0.0509,-0.0455,-0.0417,-0.0358,-0.0317,-0.0276,-0.0215,-0.0134,-0.0096,-0.0063,-0.0041,-0.0043,-0.0043,-0.0045,-0.0053,-0.0002,-0.0053,-0.0052,-0.0052,-0.0052,-0.0051,0,-0.0812,-0.0768,-0.0729,-0.0664,-0.063,-0.0587,-0.0531,-0.0507,-0.0471,-0.0419,-0.0379,-0.0329,-0.0284,-0.0217,-0.0167,-0.0154,-0.0131,-0.0144,-0.0144,-0.0136,-0.0075,-0.0079,-0.0164,-0.0164,-0.0164,-0.0164,-0.0164,-0.0164,-0.0845,-0.0817,-0.0777,-0.0727,-0.0683,-0.0642,-0.0614,-0.0575,-0.0533,-0.048,-0.0442,-0.0399,-0.0341,-0.0287,-0.0244,-0.0226,-0.0211,-0.0232,-0.0207,-0.0151,-0.014,-0.013,-0.0134,-0.0229,-0.0229,-0.027,-0.0271,-0.0271]}]]